Location: Izdebno
(52.6670°N, 16.2170°E)
Time: 04:44:14
(UTC+02:00)

Transit 4A - Pass Details

Date: 22 February 2024
Orbit: 871 x 972 km, 66.8° (Epoch: 22 April)

Event Time Altitude Azimuth Distance (km) Brightness Sun altitude
Rises 02:40:02 0° 217° (SW) 3,602 - -38.0°
Reaches altitude 10° 02:42:35 10° 218° (SW) 2,647 - -37.7°
Maximum altitude 02:48:46 89° 312° (NW) 927 - -36.9°
Exits shadow 02:51:09 40° 38° (NE) 1,332 9.0 -36.6°
Drops below altitude 10° 02:54:48 10° 40° (NE) 2,590 10.9 -36.2°
Sets 02:57:17 0° 40° (NE) 3,520 11.9 -35.9°
